CW3999 Weather Reports


time (UTC)temp
C
wind
direction
speed
KPH
gust
KPH
rain 1hr
cm
rain 24hr
cm
rain mn
cm
humidity
%
barometer
mb
20260505101804 10 234 0.0 0.0 0.00 0.00 0.00 100 1012.8
20260505101304 10 234 0.0 0.0 0.00 0.00 0.00 100 1012.8
20260505100804 10 234 0.0 0.0 0.00 0.00 0.00 100 1012.8
20260505100303 10 234 0.0 0.0 0.00 0.00 0.00 100 1012.7
20260505095804 10 234 0.0 0.0 0.00 0.00 0.00 100 1012.7
20260505094802 11 234 0.0 0.0 0.00 0.00 0.00 100 1012.7
20260505093802 11 234 0.0 0.0 0.00 0.00 0.00 100 1012.7
20260505093302 11 234 0.0 0.0 0.00 0.00 0.00 100 1012.5
20260505092305 11 234 0.0 0.0 0.00 0.00 0.00 100 1012.5
20260505091803 11 234 0.0 0.0 0.00 0.00 0.00 100 1012.5
20260505090302 11 234 0.0 0.0 0.00 0.00 0.00 100 1012.3
20260505085802 11 234 0.0 0.0 0.00 0.00 0.00 100 1012.3
20260505085304 11 234 0.0 0.0 0.00 0.00 0.00 100 1012.3
20260505084302 11 234 0.0 0.0 0.00 0.00 0.00 100 1012.2
20260505083803 11 234 0.0 0.0 0.00 0.00 0.00 100 1012.2
20260505082804 11 234 0.0 0.0 0.00 0.00 0.00 100 1012.2
20260505082304 11 234 0.0 0.0 0.00 0.00 0.00 100 1012.2
20260505081804 11 234 0.0 0.0 0.00 0.00 0.00 100 1012.2
20260505081310 11 234 0.0 0.0 0.00 0.00 0.00 100 1012.1
20260505080803 12 234 0.0 0.0 0.00 0.00 0.00 100 1011.9
20260505080302 12 234 0.0 0.0 0.00 0.00 0.00 100 1012.0
20260505075304 12 234 0.0 0.0 0.00 0.00 0.00 100 1011.9
20260505074802 12 234 0.0 0.0 0.00 0.00 0.00 100 1011.8
20260505074301 12 234 0.0 0.0 0.00 0.00 0.00 100 1011.7
20260505073803 12 234 0.0 0.0 0.00 0.00 0.00 100 1011.7
20260505073303 12 234 0.0 0.0 0.00 0.00 0.00 100 1011.6
20260505072302 12 234 0.0 0.0 0.00 0.00 0.00 100 1011.5
20260505071804 12 234 0.0 0.0 0.00 0.00 0.00 100 1011.5
20260505071303 13 234 0.0 0.0 0.00 0.00 0.00 100 1011.4
20260505070755 13 234 0.0 0.0 0.00 0.00 0.00 100 1011.4
20260505065755 13 234 0.0 0.0 0.00 0.00 0.00 100 1011.2
20260505065251 13 234 0.0 0.0 0.00 0.00 0.00 100 1011.2
20260505064747 14 234 0.0 0.0 0.00 0.00 0.00 100 1011.0
20260505064245 14 234 0.0 0.0 0.00 0.00 0.00 100 1011.0
20260505063731 14 234 0.0 0.0 0.00 0.00 0.00 100 1011.0
20260505062731 15 234 0.0 0.0 0.00 0.00 0.00 3 1010.7
20260505062227 15 234 0.0 0.0 0.00 0.00 0.00 2 1010.7
20260505061724 15 234 0.0 0.0 0.00 0.00 0.00 4 1010.7
20260505060717 15 234 0.0 0.0 0.00 0.00 0.00 9 1010.5
20260505060219 15 234 0.0 0.0 0.00 0.00 0.00 9 1010.6
20260505055215 15 234 0.0 0.0 0.00 0.00 0.00 12 1010.5
20260505054215 16 234 0.0 0.0 0.00 0.00 0.00 16 1010.6
20260505053710 16 234 0.0 0.0 0.00 0.00 0.00 19 1010.6
20260505053204 16 234 0.0 0.0 0.00 0.00 0.00 20 1010.5
20260505052704 16 234 0.0 0.0 0.00 0.00 0.00 20 1010.4
20260505052203 16 234 0.0 0.0 0.00 0.00 0.00 21 1010.4
20260505051703 16 234 0.0 0.0 0.00 0.00 0.00 21 1010.3
20260505051203 16 234 0.0 0.0 0.00 0.00 0.00 20 1010.3
20260505050203 16 234 0.0 0.0 0.00 0.00 0.00 21 1010.2
20260505041702 18 232 0.0 0.0 0.00 0.00 0.00 33 1009.7
20260505041203 18 232 0.0 0.0 0.00 0.00 0.00 34 1009.6
20260505040702 18 232 0.0 0.0 0.00 0.00 0.00 35 1009.5
20260505040202 18 232 0.0 0.0 0.00 0.00 0.00 37 1009.5
20260505035703 18 232 0.0 0.0 0.00 0.00 0.00 38 1009.4
20260505035204 18 232 0.0 0.0 0.00 0.00 0.00 38 1009.2
20260505034702 18 232 0.0 0.0 0.00 0.00 0.00 37 1009.2
20260505034202 18 232 0.0 0.0 0.00 0.00 0.00 37 1009.1
20260505033702 19 232 0.0 0.0 0.00 0.00 0.00 37 1009.0
20260505032702 19 232 0.0 0.0 0.00 0.00 0.00 41 1008.8
20260505031705 20 232 0.0 0.0 0.00 0.00 0.00 43 1008.8
20260505031204 20 232 0.0 0.0 0.00 0.00 0.00 44 1008.7
20260505030201 20 232 0.0 0.0 0.00 0.00 0.00 48 1008.5
20260505025704 20 232 0.0 0.0 0.00 0.00 0.00 48 1008.5
20260505025203 20 232 0.0 0.0 0.00 0.00 0.00 48 1008.5
20260505024703 21 232 0.0 0.0 0.00 0.00 0.00 48 1008.4
20260505024203 21 232 0.0 0.0 0.00 0.00 0.00 48 1008.4
20260505023647 21 232 0.0 0.0 0.00 0.00 0.00 48 1008.3
20260505023147 21 232 0.0 0.0 0.00 0.00 0.00 50 1008.4
20260505022629 21 232 0.0 0.0 0.00 0.00 0.00 50 1008.4
20260505022133 21 232 0.0 0.0 0.00 0.00 0.00 50 1008.3
20260505021632 21 232 0.0 0.0 0.00 0.00 0.00 50 1008.3
20260505021132 21 232 0.0 0.0 0.00 0.00 0.00 50 1008.3
20260505020130 22 232 0.0 0.0 0.00 0.00 0.00 51 1008.3
20260505015123 22 234 0.0 0.0 0.00 0.00 0.00 50 1008.3
20260505014622 22 234 0.0 0.0 0.00 0.00 0.00 51 1008.2
20260505014124 22 234 0.0 0.0 0.00 0.00 0.00 50 1008.2
20260505013607 22 234 0.0 0.0 0.00 0.00 0.00 49 1008.3
20260505013103 22 234 0.0 0.0 0.00 0.00 0.00 49 1008.3
20260505012602 22 234 0.0 0.0 0.00 0.00 0.00 49 1008.3
20260505012101 22 234 0.0 0.0 0.00 0.00 0.00 49 1008.3
20260505011102 22 234 0.0 0.0 0.00 0.00 0.00 51 1008.4
20260505010604 22 282 0.0 0.0 0.00 0.00 0.00 51 1008.5
20260505010104 23 282 0.0 0.0 0.00 0.00 0.00 51 1008.5
20260505005601 23 282 0.0 0.0 0.00 0.00 0.00 50 1008.5
20260505005103 23 282 0.0 0.0 0.00 0.00 0.00 50 1008.5
20260505004604 23 282 0.0 0.0 0.00 0.00 0.00 49 1008.6
20260505004105 23 282 0.0 0.0 0.00 0.00 0.00 51 1008.6
20260505003602 23 282 0.0 0.0 0.00 0.00 0.00 51 1008.6
20260505003101 23 282 0.0 0.0 0.00 0.00 0.00 50 1008.6
20260505002602 23 282 0.0 0.0 0.00 0.00 0.00 50 1008.6
20260505002103 23 282 0.0 0.0 0.00 0.00 0.00 51 1008.5
20260505001102 23 282 0.0 0.0 0.00 0.00 0.00 51 1008.6
20260505000600 23 282 0.0 0.0 0.00 0.00 0.00 52 1008.8
20260505000104 23 282 0.0 0.0 0.00 0.00 0.00 51 1008.8
20260504235103 23 282 0.0 0.0 0.00 0.00 0.00 52 1008.8
20260504234600 23 282 0.0 0.0 0.00 0.00 0.00 52 1008.8
20260504233602 23 299 0.0 0.0 0.00 0.00 0.00 52 1008.9
20260504233101 23 299 0.0 0.0 0.00 0.00 0.00 51 1009.0
20260504232602 23 299 0.0 0.0 0.00 0.00 0.00 52 1009.1
20260504232102 23 300 0.0 0.0 0.00 0.00 0.00 52 1009.0
20260504231103 24 304 0.0 0.0 0.00 0.00 0.00 52 1009.1
20260504230602 24 304 0.0 0.0 0.00 0.00 0.00 52 1009.1
20260504225603 25 305 0.0 0.0 0.00 0.00 0.00 52 1009.2
20260504225103 25 305 0.0 0.0 0.00 0.00 0.00 52 1009.3
20260504224602 24 305 0.0 0.0 0.00 0.00 0.00 52 1009.4
20260504224101 24 305 0.0 0.0 0.00 0.00 0.00 51 1009.4
20260504223604 24 305 0.0 0.0 0.00 0.00 0.00 51 1009.5
20260504222603 24 305 0.0 0.0 0.00 0.00 0.00 52 1009.6
20260504221602 24 305 0.0 0.0 0.00 0.00 0.00 52 1009.7
20260504221102 24 305 0.0 0.0 0.00 0.00 0.00 51 1009.8
20260504220603 23 305 0.0 0.0 0.00 0.00 0.00 50 1009.9
20260504215104 22 305 0.0 0.0 0.00 0.00 0.00 50 1010.0
20260504214559 22 305 0.0 0.0 0.00 0.00 0.00 52 1010.1
20260504214054 22 305 0.0 0.0 0.00 0.00 0.00 51 1010.1
20260504213047 22 305 0.0 0.0 0.00 0.00 0.00 50 1010.3
20260504212547 22 305 0.0 0.0 0.00 0.00 0.00 51 1010.3
20260504212043 22 305 0.0 0.0 0.00 0.00 0.00 50 1010.4
20260504211539 22 305 0.0 0.0 0.00 0.00 0.00 46 1010.4
20260504211032 21 305 0.0 0.0 0.00 0.00 0.00 50 1010.6
20260504210531 21 305 0.0 0.0 0.00 0.00 0.00 48 1010.7
20260504210029 21 305 0.0 0.0 0.00 0.00 0.00 47 1010.8
20260504205530 21 305 0.0 0.0 0.00 0.00 0.00 46 1010.8
20260504204530 20 305 0.0 0.0 0.00 0.00 0.00 45 1011.1
20260504204030 20 305 0.0 0.0 0.00 0.00 0.00 45 1011.1
20260504203530 20 305 0.0 0.0 0.00 0.00 0.00 45 1011.1
20260504203030 20 305 0.0 0.0 0.00 0.00 0.00 45 1011.2
20260504202531 20 305 0.0 0.0 0.00 0.00 0.00 47 1011.2
20260504202029 20 305 0.0 0.0 0.00 0.00 0.00 40 1011.2
20260504201529 20 305 0.0 0.0 0.00 0.00 0.00 44 1011.3
20260504201029 20 305 0.0 0.0 0.00 0.00 0.00 42 1011.4
20260504200529 20 305 0.0 0.0 0.00 0.00 0.00 45 1011.4
20260504200029 20 305 0.0 0.0 0.00 0.00 0.00 44 1011.5
20260504195530 19 305 0.0 0.0 0.00 0.00 0.00 38 1011.5
20260504195030 19 305 0.0 0.0 0.00 0.00 0.00 40 1011.6
20260504194529 19 305 0.0 0.0 0.00 0.00 0.00 37 1011.6
20260504194029 19 305 0.0 0.0 0.00 0.00 0.00 38 1011.5
20260504193530 18 305 0.0 0.0 0.00 0.00 0.00 29 1011.6
20260504193030 18 305 0.0 0.0 0.00 0.00 0.00 36 1011.7
20260504192532 18 305 0.0 0.0 0.00 0.00 0.00 32 1011.7
20260504191530 17 305 0.0 0.0 0.00 0.00 0.00 29 1011.8
20260504190529 17 312 0.0 0.0 0.00 0.00 0.00 12 1011.9
20260504190029 17 312 0.0 0.0 0.00 0.00 0.00 15 1011.9
20260504185531 16 312 0.0 0.0 0.00 0.00 0.00 15 1011.9
20260504185030 16 312 0.0 0.0 0.00 0.00 0.00 13 1012.0
20260504184529 16 312 0.0 0.0 0.00 0.00 0.00 16 1012.0
20260504184030 16 315 0.0 0.0 0.00 0.00 0.00 7 1012.1
20260504183530 16 315 0.0 0.0 0.00 0.00 0.00 8 1012.1
20260504183029 16 315 0.0 0.0 0.00 0.00 0.00 6 1012.0
20260504182528 16 315 0.0 0.0 0.00 0.00 0.00 5 1012.0
20260504182030 16 315 0.0 0.0 0.00 0.00 0.00 5 1011.9
20260504181523 16 315 0.0 0.0 0.00 0.00 0.00 2 1011.9
20260504181019 16 315 0.0 0.0 0.00 0.00 0.00 100 1012.0
20260504180514 16 315 0.0 0.0 0.00 0.00 0.00 100 1012.1
20260504180014 16 315 0.0 0.0 0.00 0.00 0.00 100 1012.1
20260504175003 16 315 0.0 0.0 0.00 0.00 0.00 100 1012.0
20260504174504 16 315 0.0 0.0 0.00 0.00 0.00 100 1012.0
20260504174001 16 315 0.0 0.0 0.00 0.00 0.00 100 1012.0
20260504173505 16 315 0.0 0.0 0.00 0.00 0.00 100 1012.0
20260504173005 15 315 0.0 0.0 0.00 0.00 0.00 100 1012.0
20260504172002 15 315 0.0 0.0 0.00 0.00 0.00 100 1011.9
20260504171502 15 316 0.0 0.0 0.00 0.00 0.00 100 1011.9
20260504171004 15 315 0.0 0.0 0.00 0.00 0.00 100 1011.9
20260504170503 15 315 0.0 0.0 0.00 0.00 0.00 100 1011.9
20260504160432 15 315 0.0 0.0 0.00 0.00 0.00 100 1011.8
20260504150430 14 315 0.0 0.0 0.00 0.00 0.00 100 1011.4
20260504140904 12 261 0.0 0.0 0.00 0.00 0.00 100 1010.7
20260504140401 12 261 0.0 0.0 0.00 0.00 0.00 100 1010.7
20260504130403 11 261 0.0 0.0 0.00 0.00 0.00 100 1009.8
20260504110329 14 261 0.0 0.0 0.00 0.00 0.00 100 1007.9